Bennettsville, SC

11:26 AM EDT on July 28, 2017 (GMT -0400)
Marlboro County-Avent

Weather History for KBBP - July, 2014

Change the Weather History Date:

Monday, July 7, 2014

  Actual Average (KFLO) Record (KFLO)
Temperature  
Mean Temperature 82 °F -  
Max Temperature 95 °F 89 °F 104 °F (1954)
Min Temperature 68 °F 70 °F 57 °F (1951)
Cooling Degree Days 16    
Growing Degree Days 32 (Base 50)    
Moisture  
Dew Point 63 °F    
Average Humidity 60    
Maximum Humidity 100    
Minimum Humidity 25    
Precipitation  
Precipitation 0.00 in - - ()
Sea Level Pressure  
Sea Level Pressure 30.03 in    
Wind  
Wind Speed 3 mph (SSW)    
Max Wind Speed 12 mph    
Max Gust Speed -    
Visibility 9 miles    
Events Fog    
Averages and records for this station are not official NWS values.
T = Trace of Precipitation, MM = Missing Value Source: NWS Daily Summary

Daily Weather History Graph

Daily Weather History Graph

Search for Another Location

Airport or City:

Trip Planner

Search our weather history database for the weather conditions in past years. The results will help you decide how hot, cold, wet, or windy it might be!

Date:

Astronomy

Jul. 07, 2014 Rise Set
Actual Time 6:12 AM EDT 8:34 PM EDT
Civil Twilight 5:43 AM EDT 9:04 PM EDT
Nautical Twilight 5:07 AM EDT 9:39 PM EDT
Astronomical Twilight 4:28 AM EDT 10:19 PM EDT
Moon 3:42 PM EDT (7/7) 1:57 AM EDT (7/7)
Length of Visible Light 15h 20m
Length of Day
14h 22m
Waxing Gibbous, 72% of the Moon is Illuminated
Jul 7
Waxing Gibbous
Jul 12
Full
Jul 18
Last Quarter
Jul 26
New
Aug 3
First Quarter

Hourly Weather History & Observations

Time (EDT) Temp. Heat Index Dew Point Humidity Pressure Visibility Wind Dir Wind Speed Gust Speed Precip Events Conditions
12:15 AM 77.0 °F - 55.4 °F 47% 30.07 in 10.0 mi South 3.5 mph - N/A   Clear
12:35 AM 75.2 °F - 57.2 °F 53% 30.07 in 10.0 mi Calm Calm - N/A   Clear
12:55 AM 75.2 °F - 60.8 °F 61% 30.06 in 10.0 mi South 3.5 mph - N/A   Clear
1:15 AM 73.4 °F - 64.4 °F 73% 30.06 in 10.0 mi Calm Calm - N/A   Clear
1:35 AM 73.4 °F - 68.0 °F 83% 30.06 in 10.0 mi Calm Calm - N/A   Clear
1:55 AM 73.4 °F - 68.0 °F 83% 30.06 in 10.0 mi Calm Calm - N/A   Clear
2:15 AM 71.6 °F - 69.8 °F 94% 30.06 in 10.0 mi Calm Calm - N/A   Clear
2:35 AM 71.6 °F - 71.6 °F 100% 30.06 in 10.0 mi Calm Calm - N/A   Clear
2:55 AM 71.6 °F - 71.6 °F 100% 30.05 in 10.0 mi Calm Calm - N/A   Clear
3:15 AM 69.8 °F - 69.8 °F 100% 30.04 in 10.0 mi Calm Calm - N/A   Clear
3:35 AM 69.8 °F - 69.8 °F 100% 30.03 in 10.0 mi Calm Calm - N/A   Clear
3:55 AM 71.6 °F - 71.6 °F 100% 30.03 in 10.0 mi Calm Calm - N/A   Clear
4:15 AM 71.6 °F - 71.6 °F 100% 30.03 in 10.0 mi Calm Calm - N/A   Clear
4:35 AM 71.6 °F - 71.6 °F 100% 30.03 in 10.0 mi Calm Calm - N/A   Clear
4:55 AM 69.8 °F - 69.8 °F 100% 30.03 in 7.0 mi Calm Calm - N/A   Clear
5:15 AM 69.8 °F - 69.8 °F 100% 30.04 in 10.0 mi Calm Calm - N/A   Clear
5:35 AM 69.8 °F - 69.8 °F 100% 30.05 in 7.0 mi Calm Calm - N/A   Clear
5:55 AM 68.0 °F - 68.0 °F 100% 30.05 in 10.0 mi Calm Calm - N/A   Scattered Clouds
6:15 AM 69.8 °F - 69.8 °F 100% 30.06 in 10.0 mi Calm Calm - N/A   Mostly Cloudy
6:35 AM 71.6 °F - 71.6 °F 100% 30.06 in 5.0 mi Calm Calm - N/A   Overcast
6:55 AM 71.6 °F - 71.6 °F 100% 30.06 in 0.5 mi Calm Calm - N/A Fog Fog
7:15 AM 71.6 °F - - N/A% 30.06 in 0.2 mi Calm Calm - N/A Fog Fog
7:35 AM 71.6 °F - - N/A% 30.07 in 0.2 mi Calm Calm - N/A Fog Fog
7:55 AM 71.6 °F - - N/A% 30.08 in 1.2 mi South 4.6 mph - N/A   Overcast
8:15 AM 73.4 °F - - N/A% 30.08 in 5.0 mi South 3.5 mph - N/A   Haze
8:35 AM 73.4 °F - 73.4 °F 100% 30.08 in 10.0 mi South 3.5 mph - N/A   Overcast
8:55 AM 75.2 °F - 75.2 °F 100% 30.09 in 10.0 mi South 4.6 mph - N/A   Overcast
9:15 AM 77.0 °F - 77.0 °F 100% 30.10 in 10.0 mi SSW 6.9 mph - N/A   Overcast
9:35 AM 77.0 °F - 77.0 °F 100% 30.10 in 7.0 mi SW 5.8 mph - N/A   Overcast
9:55 AM 78.8 °F - 75.2 °F 89% 30.10 in 10.0 mi WSW 3.5 mph - N/A   Scattered Clouds
10:15 AM 80.6 °F 85.4 °F 73.4 °F 79% 30.10 in 10.0 mi WSW 3.5 mph - N/A   Scattered Clouds
10:35 AM 82.4 °F 87.2 °F 71.6 °F 70% 30.09 in 10.0 mi West 3.5 mph - N/A   Scattered Clouds
10:55 AM 82.4 °F 87.2 °F 71.6 °F 70% 30.08 in 10.0 mi West 3.5 mph - N/A   Scattered Clouds
11:15 AM 84.2 °F 88.4 °F 69.8 °F 62% 30.08 in 10.0 mi SW 3.5 mph - N/A   Scattered Clouds
11:35 AM 86.0 °F 90.4 °F 69.8 °F 58% 30.08 in 10.0 mi West 5.8 mph - N/A   Scattered Clouds
11:55 AM 87.8 °F 91.4 °F 68.0 °F 52% 30.07 in 10.0 mi SSW 4.6 mph - N/A   Scattered Clouds
12:15 PM 87.8 °F 91.4 °F 68.0 °F 52% 30.06 in 10.0 mi WSW 4.6 mph - N/A   Scattered Clouds
12:35 PM 87.8 °F 90.4 °F 66.2 °F 49% 30.05 in 10.0 mi SW 6.9 mph - N/A   Scattered Clouds
12:55 PM 89.6 °F 91.1 °F 64.4 °F 43% 30.05 in 10.0 mi South 6.9 mph - N/A   Scattered Clouds
1:15 PM 89.6 °F 90.1 °F 62.6 °F 40% 30.03 in 10.0 mi SSE 6.9 mph - N/A   Scattered Clouds
1:35 PM 91.4 °F 92.1 °F 62.6 °F 38% 30.03 in 10.0 mi SSW 6.9 mph - N/A   Clear
1:55 PM 91.4 °F 91.4 °F 60.8 °F 36% 30.02 in 10.0 mi South 8.1 mph - N/A   Clear
2:15 PM 91.4 °F 90.7 °F 59.0 °F 34% 30.01 in 10.0 mi SSE 9.2 mph - N/A   Scattered Clouds
2:35 PM 93.2 °F 92.6 °F 59.0 °F 32% 30.01 in 10.0 mi South 6.9 mph - N/A   Scattered Clouds
2:55 PM 93.2 °F 91.9 °F 57.2 °F 30% 30.00 in 10.0 mi South 6.9 mph - N/A   Scattered Clouds
3:15 PM 91.4 °F 89.4 °F 55.4 °F 29% 30.00 in 10.0 mi SSW 9.2 mph - N/A   Scattered Clouds
3:35 PM 93.2 °F 91.3 °F 55.4 °F 28% 30.00 in 10.0 mi South 6.9 mph - N/A   Scattered Clouds
3:55 PM 95.0 °F 92.7 °F 53.6 °F 25% 29.99 in 10.0 mi South 10.4 mph - N/A   Scattered Clouds
4:35 PM 95.0 °F 92.7 °F 53.6 °F 25% 29.98 in 10.0 mi SSW 8.1 mph - N/A   Scattered Clouds
4:55 PM 95.0 °F 92.7 °F 53.6 °F 25% 29.98 in 10.0 mi SW 10.4 mph - N/A   Scattered Clouds
5:15 PM 91.4 °F 89.1 °F 53.6 °F 28% 29.98 in 10.0 mi SSW 9.2 mph - N/A   Clear
5:35 PM 91.4 °F 89.1 °F 53.6 °F 28% 29.97 in 10.0 mi SSW 9.2 mph - N/A   Clear
5:55 PM 91.4 °F 89.1 °F 53.6 °F 28% 29.97 in 10.0 mi SSW 8.1 mph - N/A   Clear
6:15 PM 91.4 °F 89.1 °F 53.6 °F 28% 29.97 in 10.0 mi SSW 9.2 mph - N/A   Clear
6:35 PM 91.4 °F 89.1 °F 53.6 °F 28% 29.96 in 10.0 mi SSW 8.1 mph - N/A   Clear
6:55 PM 91.4 °F 89.1 °F 53.6 °F 28% 29.96 in 10.0 mi SSW 8.1 mph - N/A   Clear
7:15 PM 89.6 °F 87.3 °F 53.6 °F 29% 29.96 in 10.0 mi SSW 8.1 mph - N/A   Clear
7:35 PM 87.8 °F 85.7 °F 53.6 °F 31% 29.97 in 10.0 mi SSW 11.5 mph - N/A   Clear
7:55 PM 87.8 °F 85.7 °F 53.6 °F 31% 29.97 in 10.0 mi SSW 5.8 mph - N/A   Clear
8:15 PM 86.0 °F - 51.8 °F 31% 29.97 in 10.0 mi SSW 8.1 mph - N/A   Clear
8:35 PM 86.0 °F - 51.8 °F 31% 29.97 in 10.0 mi South 3.5 mph - N/A   Clear
8:55 PM 82.4 °F - 51.8 °F 35% 29.97 in 10.0 mi SSW 4.6 mph - N/A   Clear
9:15 PM 82.4 °F - 51.8 °F 35% 29.97 in 10.0 mi SW 4.6 mph - N/A   Clear
9:35 PM 82.4 °F - 51.8 °F 35% 29.98 in 10.0 mi South 5.8 mph - N/A   Clear
9:55 PM 80.6 °F - 51.8 °F 37% 29.99 in 10.0 mi South 5.8 mph - N/A   Clear
10:15 PM 80.6 °F - 51.8 °F 37% 30.01 in 10.0 mi South 3.5 mph - N/A   Clear
10:55 PM 80.6 °F 80.3 °F 53.6 °F 39% 30.02 in 10.0 mi SSE 5.8 mph - N/A   Clear
11:15 PM 78.8 °F - 53.6 °F 42% 30.02 in 10.0 mi SSE 5.8 mph - N/A   Clear
11:35 PM 78.8 °F - 55.4 °F 44% 30.02 in 10.0 mi South 4.6 mph - N/A   Clear
11:55 PM 78.8 °F - 55.4 °F 44% 30.02 in 10.0 mi South 5.8 mph - N/A   Clear